Flag for U.S.A. Weather past 2 weeks in Cleveland, Tennessee, U.S.A.

38 °F

Passing clouds.

Feels Like: 38 °F
Forecast: 38 / 65 °F
Wind: No wind

Location: Lovell Field

Current Time: Nov 26, 2015 at 7:53:20 AM

Latest Report: Nov 26, 2015 at 6:53 AM

Visibility: 10 mi

Pressure: 30.61 "Hg

Humidity: 90%

Dew point: 35 °F

Location of ClevelandLocation

Historic Weather in Cleveland — Graph


Cleveland temperature yesterday

Maximum temperature yesterday: 61 °F (at 2:53 PM)
Minimum temperature yesterday: 36 °F (at 2:53 AM)
Average temperature yesterday: 48 °F

Past Weeks' High & Low Weather Summary

High72 °F (Nov 12, 2:53 PM)100% (Nov 11, 7:53 AM)30.61 "Hg (Nov 11, 7:53 AM)
Low28 °F (Nov 23, 5:53 AM)14% (Nov 13, 3:53 PM)29.84 "Hg (Nov 18, 6:53 PM)
Average50 °F64%30.21 "Hg
* Reported Nov 11 6:53 AM — Nov 26 6:53 AM, Cleveland, Weather by CustomWeather, © 2015

Note: Actual official high and low records may vary slightly from our data, if they occured in-between our weather recording intervals... More about our weather records


Cleveland weather history for previous 24 hours

Time TempWeatherWind HumidityBarometerVisibility
6:53 AM
Thu, Nov 26
38 °FPassing clouds.No wind90%30.61 "Hg10 mi
5:53 AM38 °FPassing clouds.No wind90%30.60 "Hg10 mi
4:53 AM39 °FClear.No wind86%30.58 "Hg10 mi
3:53 AM39 °FClear.No wind86%30.57 "Hg10 mi
2:53 AM39 °FClear.3 mph82%30.56 "Hg10 mi
1:53 AM42 °FClear.No wind76%30.56 "Hg10 mi
12:53 AM44 °FClear.No wind68%30.55 "Hg10 mi
11:53 PM
Wed, Nov 25
49 °FClear.3 mph57%30.55 "Hg10 mi
10:53 PM48 °FPassing clouds.5 mph59%30.55 "Hg10 mi
9:53 PM48 °FClear.6 mph59%30.54 "Hg10 mi
8:53 PM49 °FClear.No wind59%30.52 "Hg10 mi
7:53 PM53 °FPassing clouds.No wind51%30.50 "Hg10 mi
6:53 PM55 °FPassing clouds.6 mph47%30.48 "Hg10 mi
5:53 PM57 °FPassing clouds.7 mph44%30.46 "Hg10 mi
4:53 PM59 °FScattered clouds.13 mph42%30.45 "Hg10 mi
3:53 PM61 °FScattered clouds.12 mph39%30.45 "Hg10 mi
2:53 PM61 °FScattered clouds.13 mph39%30.46 "Hg10 mi
1:53 PM60 °FBroken clouds.9 mph39%30.47 "Hg10 mi
12:53 PM59 °FBroken clouds.8 mph39%30.49 "Hg10 mi
11:53 AM57 °FBroken clouds.9 mph42%30.51 "Hg10 mi
10:53 AM52 °FBroken clouds.No wind50%30.53 "Hg10 mi
9:53 AM48 °FBroken clouds.No wind61%30.53 "Hg10 mi
8:53 AM42 °FBroken clouds.No wind79%30.51 "Hg10 mi
7:53 AM36 °FBroken clouds.5 mph92%30.50 "Hg10 mi
Weather by CustomWeather, © 2015

See weather overviewHow to use our weather pages